Temp_Advection
nan nan nan nan nan nan nan nan nan nan nan nan nan nan nan nan nan nan nan nan nan nan nan nan nan nan nan nan nan nan nan nan nan nan nan nan nan nan nan nan nan nan nan nan nan nan nan nan nan
nan -0 -0 -0 -0 0 -0 -0 0 -0 -0 -0 0 -0 -0 -0 -0 -0 -0 -0 -0 -0 -0 -0 -0 -0 -0 -0 0 -0 -0 0 -0 -0 -0 -0 -0 -0 0 0 0 0 0 0 -0 -0 0 -0 nan
nan -0 0 -0 0 -0 -0 -0 -0 -0 0 0 -0 -0 -0 -0 0 -0 -0 0 0 0 -0 -0 -0 -0 -0 0 -0 -0 0 0 0 -0 -0 -0 -0 -0 -0 0 0 0 0 0 0 0 0 0 nan
nan -0 0 -0 -0 -0 -0 -0 -0 -0 -0 -0 -0 -0 0 -0 -0 0 0 0 0 0 0 -0 -0 -0 -0 -0 -0 0 0 -0 0 -0 -0 -0 0 -0 0 -0 0 0 0 0 0 -0 -0 0 nan
nan 0 -0 0 -0 -0 -0 -0 -0 -0 0 -0 -0 -0 -0 0 0 0 0 0 0 0 0 0 -0 -0 -0 -0 -0 0 -0 -0 0 -0 -0 -0 -0 -0 0 -0 0 0 0 0 0 0 0 0 nan
nan 0 -0 -0 -0 -0 -0 -1 -0 -0 0 -0 -0 -0 0 -0 0 0 0 0 0 0 0 0 -0 -0 -0 -0 -0 0 -0 -0 0 0 -0 -0 -0 -0 -0 -0 -0 0 0 0 -0 -0 0 0 nan
nan 0 -0 -0 -0 -1 -1 -0 -0 -0 0 0 0 -0 0 -0 -0 0 0 0 0 0 0 -0 -0 -0 -0 -0 0 -0 -0 0 0 -0 -0 -0 -0 -0 -0 -0 -0 0 -0 -0 -0 -0 -0 -0 nan
nan -0 0 -0 -0 -1 -1 -0 -0 -0 -0 0 -0 -0 -0 -0 0 0 0 0 0 0 -0 -0 -0 -0 -0 -0 0 -0 0 0 -0 -0 -0 -0 -0 -0 -0 -0 0 -0 -0 -0 -0 -0 -0 -0 nan
nan 0 -0 -0 -0 -1 -0 -0 -1 -0 0 0 0 0 0 0 0 -0 -0 -0 -0 -0 -0 -0 0 0 0 0 0 0 0 0 -0 0 -0 -0 -0 -0 -0 -0 -0 -0 -0 -0 -0 -0 -0 -0 nan
nan -0 -1 -0 -1 -0 -0 -0 -1 0 0 0 -0 -0 -0 0 -0 -0 -0 -0 -0 -0 -0 0 0 0 0 0 0 0 0 0 0 0 0 0 0 0 -0 0 -0 -0 -0 -0 -0 -0 -0 -0 nan
nan -1 -0 -0 -1 0 0 -0 -1 0 -0 -0 0 0 0 0 0 -0 -0 -0 -0 0 0 0 0 0 0 0 0 0 0 0 0 0 0 0 0 -0 -0 -0 -0 -0 -0 -0 -0 -0 -0 -0 nan
nan -1 -1 -0 -0 0 -0 -0 -0 -0 -0 -0 0 -0 0 0 0 -0 -0 -0 -0 0 0 0 0 0 0 0 0 0 0 0 0 0 0 0 0 0 0 -0 -0 -0 -0 -0 -0 -0 -0 0 nan
nan -0 -1 -0 -0 -0 -0 0 -0 -1 -1 -0 -0 -0 -0 -0 -0 -0 -0 -0 -0 0 0 1 0 0 0 0 0 0 0 0 0 0 0 0 0 0 0 0 0 0 0 0 -0 0 0 0 nan
nan -0 -1 -0 -0 -0 -0 -1 -1 -1 -1 -0 -0 -0 -0 0 -0 0 -0 -0 -0 0 0 1 1 1 0 0 0 0 0 0 0 0 0 0 0 0 0 0 0 0 0 -0 -0 -0 -0 -0 nan
nan -0 -1 -0 -0 -0 -0 0 -1 -1 -1 -1 -0 -0 -0 -0 -0 -0 -0 -0 0 0 1 1 1 1 0 0 0 0 0 0 0 0 0 0 0 0 0 0 0 -0 0 -0 -0 -0 0 -0 nan
nan -0 -0 0 -0 -0 0 -0 -1 -1 -0 -0 -0 -0 -0 -0 -0 -0 -0 0 0 0 1 1 1 0 0 0 0 0 0 0 0 -0 0 0 0 0 0 0 -0 -0 0 -0 -0 -0 0 0 nan
nan -0 -0 -1 -0 0 0 -1 -0 -1 0 -0 -1 -0 0 0 0 -0 0 0 1 1 1 1 1 0 0 0 0 0 0 0 0 0 0 0 0 0 0 0 -0 -0 -0 -0 0 -0 -0 -0 nan
nan 0 -0 -0 -0 0 -0 -0 -1 -1 -0 -1 -1 -0 0 0 -0 1 1 0 1 1 1 1 0 0 0 0 0 0 0 0 0 0 0 0 0 0 -0 -0 0 0 -0 -0 -0 -0 -0 -0 nan
nan 0 -0 -0 -0 -0 -0 -1 -1 -0 0 -0 -2 -1 -0 0 1 1 0 0 1 1 1 0 0 0 1 1 1 0 0 1 0 1 0 0 -0 -0 -0 0 -0 -0 -0 -0 -0 -0 -0 -0 nan
nan -0 -1 -1 -0 -0 0 -1 -1 -1 -0 -1 -1 -1 -0 1 1 0 0 1 1 0 0 1 1 1 1 1 1 1 1 1 1 0 0 0 0 0 0 -0 -0 -0 -0 -0 -0 -0 -0 -0 nan
nan -0 -0 -0 -1 -1 -0 -0 -1 -1 -1 -1 -1 -1 -0 1 0 0 1 1 1 0 0 1 1 1 1 1 1 1 0 0 0 0 0 0 0 0 -0 -0 -0 -0 -0 -0 -0 -0 -1 -0 nan
nan -0 -0 -0 0 -0 0 -0 -0 -0 -0 -0 -1 0 0 0 0 1 1 1 1 0 0 0 0 0 0 0 0 0 0 0 -0 0 0 0 0 -0 -0 -0 -0 -0 -0 -0 -0 -0 -0 -0 nan
nan -0 -0 -0 0 0 0 -0 -1 -0 -0 -0 -0 -0 -0 1 2 2 1 1 1 1 0 0 0 0 0 0 0 0 0 0 0 0 0 0 0 -0 -0 -0 -0 -0 -0 -0 -0 -0 -0 -0 nan
nan 0 0 -0 0 0 -1 -0 -1 -0 -0 -0 -0 0 1 3 2 2 1 1 1 1 1 0 0 0 0 0 0 0 0 0 0 0 0 0 -0 -0 -0 -0 -0 -0 -0 -0 -0 -0 -0 -0 nan
nan 0 0 0 0 -1 -0 -0 -1 -0 -1 -1 0 -0 3 2 1 1 1 1 0 0 0 0 0 0 0 0 0 1 1 0 0 0 0 0 -0 -0 -0 -0 -0 -0 -0 -0 -0 -0 -0 -0 nan
nan 0 0 0 -0 -1 0 -0 -1 -1 -1 0 0 2 3 2 2 1 1 0 1 0 1 0 0 0 0 0 0 0 0 0 0 0 0 0 -0 -0 -0 -0 -0 -0 -0 -0 -0 -0 -0 -0 nan
nan -0 0 0 -0 -0 -0 -0 -0 0 0 1 1 2 1 2 3 1 1 1 1 1 1 1 1 0 0 0 0 0 0 0 0 0 0 -0 -0 -0 -0 -0 0 0 -0 -0 -0 -0 -0 -0 nan
nan -0 0 0 -0 -1 -0 -0 -1 -0 0 0 0 0 0 1 1 1 1 1 1 1 0 1 1 0 0 1 1 0 0 0 0 0 -0 -0 -0 -0 -0 -0 -0 -0 0 -0 -0 -0 -0 -1 nan
nan -0 -0 -0 -0 -0 -0 -0 -0 0 -0 -1 -0 -0 -0 0 -0 0 0 1 1 1 1 1 1 1 1 1 1 1 0 0 0 0 -0 -0 -0 -0 -0 -0 -0 -0 -0 -0 -0 -0 -0 -0 nan
nan nan nan nan nan nan nan nan nan nan nan nan nan nan nan nan nan nan nan nan nan nan nan nan nan nan nan nan nan nan nan nan nan nan nan nan nan nan nan nan nan nan nan nan nan nan nan nan nan
Wind_Speed
14 13 15 6 3 4 3 5 2 4 5 5 1 4 3 2 2 3 8 4 3 7 10 11 14 13 11 10 6 4 1 1 0 2 5 9 8 6 6 3 2 1 4 2 5 12 15 12 10
14 13 8 2 3 1 4 4 1 2 3 10 3 8 3 2 1 6 9 8 5 6 10 11 15 14 13 10 8 4 0 1 1 2 6 8 7 4 2 6 5 4 5 5 1 6 11 14 12
10 10 3 3 3 4 4 3 5 5 7 8 2 8 3 2 6 8 5 6 6 7 10 10 15 13 11 9 10 6 2 3 1 3 7 12 6 5 5 4 6 6 7 6 2 1 4 7 10
6 2 1 2 8 8 5 6 9 5 2 4 4 5 5 1 4 5 7 7 6 7 9 10 14 14 13 11 10 6 3 3 1 5 9 11 10 7 5 3 4 7 6 5 3 1 2 3 5
5 2 0 3 7 6 3 8 12 6 1 4 8 2 4 4 5 6 7 9 5 8 8 9 12 13 14 12 10 7 4 2 1 6 8 9 10 6 5 4 5 6 5 5 5 3 2 3 3
3 2 2 6 7 7 6 14 8 4 3 6 3 2 3 6 4 6 9 9 5 5 6 7 10 14 14 12 10 8 5 3 1 5 7 6 7 7 7 4 5 5 4 5 5 5 5 6 6
5 4 5 5 6 7 5 9 3 4 5 2 5 2 2 7 7 10 12 10 9 6 5 7 11 14 15 12 11 9 5 4 3 3 5 4 4 4 3 3 3 3 4 5 6 6 6 7 7
4 4 5 6 6 11 6 5 6 5 3 2 2 3 3 9 10 12 13 10 10 10 9 9 11 12 12 11 10 7 4 4 3 2 1 1 3 3 2 1 1 4 5 6 6 6 6 6 7
3 1 7 9 8 7 9 4 12 4 4 3 2 5 8 7 12 13 15 13 12 14 12 11 10 11 11 11 9 7 3 2 3 2 3 3 4 5 3 1 3 4 5 5 5 5 5 6 6
7 5 9 6 10 9 4 3 17 4 3 3 2 2 3 9 11 14 14 13 12 13 12 13 12 11 11 11 11 8 2 4 3 4 5 3 3 2 0 3 3 3 5 5 5 6 6 7 7
6 14 7 8 21 21 9 8 19 5 5 7 5 2 2 8 7 11 12 14 13 15 16 14 12 13 13 12 10 8 4 5 4 4 4 2 1 2 3 3 4 4 6 6 7 8 8 9 10
7 8 18 11 18 15 4 8 9 12 11 8 7 10 9 11 13 16 17 15 14 18 21 18 14 14 14 11 11 7 7 5 3 3 3 2 2 3 3 3 4 6 8 9 9 10 10 10 12
5 5 17 20 22 26 28 17 14 22 24 19 16 16 18 20 18 16 17 17 17 14 17 22 18 15 15 14 11 8 7 6 2 4 4 4 4 5 7 7 6 7 7 8 9 10 12 14 17
8 11 11 17 20 19 15 21 20 23 25 24 18 21 24 22 22 22 21 21 23 20 17 20 22 17 16 15 13 11 9 7 6 5 4 3 7 10 10 10 11 8 9 10 13 15 18 19 18
9 9 10 9 9 6 16 22 21 19 26 23 20 22 25 24 28 29 26 25 26 25 23 21 23 21 20 17 14 13 8 12 11 11 11 8 9 9 10 8 6 9 10 13 16 16 19 19 17
4 3 4 2 8 6 8 26 7 15 19 24 24 28 32 29 30 29 24 25 25 22 21 22 26 23 21 19 18 18 15 18 16 13 13 10 9 7 8 7 7 10 12 14 16 14 15 17 20
3 5 6 5 12 5 13 23 11 25 21 21 24 30 29 30 22 23 24 23 21 20 21 23 25 25 24 23 25 23 20 19 16 13 11 10 8 8 7 6 8 9 9 11 13 16 18 21 22
11 5 6 6 5 9 16 18 9 20 18 25 30 35 37 31 27 28 24 20 19 20 24 24 24 25 26 27 27 27 20 19 14 11 11 10 10 6 5 3 4 7 10 13 15 17 18 19 21
8 5 8 2 7 7 12 17 18 20 23 20 29 36 31 24 26 23 20 16 16 16 17 18 23 26 29 29 29 29 23 17 15 14 12 10 7 5 2 3 7 11 14 17 18 17 17 16 19
10 14 18 8 8 11 10 16 14 18 21 23 30 29 32 20 27 24 20 17 16 15 15 17 19 22 25 26 28 27 24 20 15 12 11 10 7 3 1 6 10 14 16 18 18 17 15 15 19
14 15 9 8 9 15 15 21 13 15 23 26 33 34 32 30 34 29 24 21 19 17 18 20 20 22 23 25 25 23 20 17 15 16 13 10 5 1 5 9 13 16 18 17 15 15 16 17 17
16 7 11 10 10 5 2 10 7 7 15 16 31 29 30 33 36 33 27 25 23 22 21 23 23 23 22 20 20 20 20 21 18 15 12 7 3 3 8 12 16 18 17 14 13 14 15 17 18
11 10 9 9 12 10 17 9 8 14 17 17 19 28 37 40 41 37 32 29 25 24 25 25 24 22 19 17 16 20 21 19 17 14 9 5 1 6 10 14 17 17 14 13 13 14 15 17 19
3 5 9 3 5 9 19 11 10 12 14 11 17 25 36 37 41 40 35 32 30 28 27 27 27 25 20 20 21 19 18 18 15 11 6 2 3 7 12 15 16 15 13 13 14 16 17 19 20
16 8 4 7 7 11 9 11 21 7 13 15 13 24 35 41 46 43 39 36 33 32 31 29 27 26 24 22 20 18 16 14 11 8 5 2 5 9 13 14 13 13 13 14 16 18 20 22 24
12 15 5 6 3 8 6 10 8 16 26 32 21 26 36 42 48 46 42 39 36 34 32 31 29 28 25 22 21 19 16 13 11 7 3 3 7 11 13 13 13 13 14 16 18 21 23 24 24
4 12 23 6 4 3 6 5 10 12 7 7 14 29 33 38 48 48 42 39 37 34 32 30 29 27 25 23 21 18 15 12 9 5 2 5 9 11 12 13 13 14 16 18 21 23 24 24 25
16 7 5 6 4 5 5 7 12 14 10 7 15 21 29 32 40 43 40 38 36 33 31 29 27 26 25 23 19 17 14 11 6 3 4 7 10 12 12 12 13 15 18 21 23 24 23 25 26
7 10 8 6 6 3 3 6 10 16 14 15 14 27 35 38 44 43 40 37 34 32 31 29 27 26 24 21 19 15 12 8 4 2 6 9 11 11 11 12 15 18 21 22 23 24 26 26 26
23 20 18 7 8 6 4 7 4 8 15 18 18 24 28 36 42 41 39 37 35 32 30 28 26 24 22 20 17 14 10 6 2 4 8 10 10 11 12 14 17 20 22 23 24 26 26 27 29
Wind_Direction
318 326 326 334 32 60 267 275 256 340 357 310 251 82 137 34 173 206 153 162 246 194 178 173 168 164 166 175 204 174 99 66 88 176 161 135 131 123 118 136 162 164 329 10 176 196 199 193 227
316 325 330 341 94 19 270 245 118 246 284 308 236 104 96 72 61 166 159 164 173 171 172 169 166 170 173 174 199 207 114 18 97 169 152 148 163 183 99 83 84 49 19 6 238 213 221 233 253
316 315 301 108 142 197 223 217 300 296 20 2 355 80 93 89 125 159 223 180 167 162 169 169 169 175 173 186 199 217 292 351 23 163 158 149 160 193 168 60 42 32 22 19 28 237 245 253 259
318 290 170 122 235 243 233 296 296 272 356 2 1 65 98 52 193 189 198 187 178 168 159 166 175 181 179 199 204 218 265 333 16 171 157 156 164 194 250 304 26 12 10 24 34 123 222 253 265
250 252 309 240 249 257 258 276 293 257 150 322 351 183 119 116 119 170 196 188 180 172 164 170 179 189 194 204 209 220 243 311 343 175 174 172 178 182 233 290 349 1 16 25 33 32 356 317 296
194 144 128 226 255 267 297 294 274 222 78 9 63 133 146 153 165 171 192 202 208 203 181 190 193 197 205 211 212 222 240 261 240 193 186 185 190 180 216 251 318 343 9 18 14 12 6 3 352
166 118 213 215 252 296 248 290 255 219 131 137 356 122 174 179 190 183 199 208 213 221 226 222 209 201 207 213 216 223 239 241 221 215 202 206 208 198 214 270 308 3 19 10 4 356 353 355 354
230 133 207 213 222 262 251 273 255 214 222 158 104 174 240 203 181 170 192 209 218 227 231 229 213 208 206 209 216 226 236 238 234 230 161 196 209 173 165 129 65 10 1 349 346 343 347 348 349
216 179 218 214 193 234 264 335 308 264 185 188 147 30 297 213 176 180 185 206 227 228 232 226 216 209 210 210 211 209 220 248 227 211 132 117 138 151 142 88 358 351 12 0 347 343 344 338 339
199 210 215 199 213 242 234 265 304 240 205 219 249 44 85 173 180 191 198 210 225 234 233 233 220 210 206 205 205 204 222 196 169 145 150 141 133 122 3 337 4 17 6 358 341 331 329 327 325
222 236 221 239 229 244 262 273 281 232 231 206 207 206 204 222 225 233 242 240 259 268 242 240 231 219 216 216 207 204 208 191 175 164 168 179 168 354 340 325 323 339 333 329 329 333 332 331 327
250 260 242 257 262 273 266 271 272 267 239 225 241 263 271 271 261 263 255 262 263 251 246 244 234 230 226 224 220 218 216 194 187 190 205 253 287 301 298 300 299 319 318 320 325 328 326 322 315
240 263 257 261 267 266 276 260 258 264 267 261 260 259 261 267 269 273 269 256 247 233 233 236 231 228 230 227 223 224 226 214 199 208 216 243 277 260 266 267 267 296 306 299 298 296 295 298 299
292 304 285 265 271 272 274 279 263 269 275 253 251 259 258 264 269 269 276 246 244 244 238 229 228 226 228 224 221 217 219 212 216 222 230 233 258 268 262 256 265 263 276 284 288 294 297 297 292
294 300 295 254 260 261 284 271 257 265 267 253 254 267 271 267 266 273 273 243 236 238 240 223 218 217 222 222 218 207 209 205 193 196 202 225 239 260 257 259 262 267 281 285 293 293 286 285 288
335 289 262 179 204 230 209 259 246 256 252 254 251 261 270 271 271 270 249 230 232 235 235 215 208 209 210 214 209 197 208 203 206 208 230 231 258 244 258 254 272 281 287 285 284 289 291 295 296
241 260 274 298 230 233 205 261 242 253 255 248 256 260 264 272 257 236 227 231 232 225 210 202 202 205 205 200 204 199 207 213 214 222 218 237 242 261 250 255 279 281 289 295 299 303 305 305 304
227 236 237 214 314 226 261 268 259 256 258 244 251 261 266 272 240 224 226 235 238 230 223 213 208 208 207 208 200 199 206 211 211 218 230 237 252 248 244 253 289 307 309 310 311 312 313 314 315
277 254 256 343 311 308 264 272 262 255 257 249 253 249 261 258 217 213 220 226 225 214 213 214 218 216 211 205 197 195 194 202 208 220 225 237 209 184 201 302 319 325 325 325 324 322 321 322 324
245 261 263 288 267 277 280 286 281 259 246 241 248 251 250 238 204 208 213 213 210 209 203 198 196 192 193 199 192 197 194 193 212 209 186 167 168 175 291 335 335 334 332 328 326 328 333 340 343
236 242 262 252 291 281 288 282 267 258 246 246 247 249 252 225 200 206 205 206 200 192 183 181 179 176 183 189 191 191 191 197 190 169 167 165 167 199 339 341 338 335 332 330 332 334 338 342 348
246 198 245 263 274 253 40 281 262 254 237 228 238 234 235 213 201 201 195 196 195 181 172 178 182 184 189 195 200 205 198 176 167 167 168 165 169 332 342 340 336 332 332 334 337 340 340 341 341
250 236 239 257 257 272 263 276 255 228 244 237 229 220 231 224 200 196 193 193 188 182 176 178 176 176 174 178 182 174 168 169 166 169 168 168 281 337 337 335 334 334 335 337 336 335 337 337 336
245 239 267 274 266 238 236 209 250 228 227 238 230 211 219 202 194 186 183 183 178 175 174 173 173 173 176 170 167 172 173 170 170 170 174 195 315 330 334 334 334 334 333 331 332 333 333 332 329
219 215 220 204 212 240 185 202 243 263 252 250 231 200 202 187 186 177 176 178 178 178 177 180 179 171 169 170 168 171 173 171 174 176 192 269 323 330 333 334 331 328 328 328 328 327 326 325 323
208 203 232 196 202 250 145 229 246 224 245 256 263 223 175 171 178 177 180 179 177 175 173 174 173 171 173 175 172 175 176 178 180 188 215 296 326 330 332 331 328 324 323 323 323 323 323 322 321
185 214 216 286 232 258 215 256 282 257 246 189 161 161 163 163 169 178 178 178 175 175 175 177 174 173 174 176 177 176 180 186 190 202 262 322 328 326 325 325 321 320 321 320 321 322 322 321 321
214 153 167 211 235 236 248 224 228 190 200 161 158 161 158 158 164 174 175 176 176 177 175 176 177 176 176 178 179 182 184 187 194 227 311 325 324 322 320 319 317 317 319 321 323 323 323 321 323
182 212 216 181 217 242 289 250 202 215 172 171 170 165 159 161 169 174 175 176 176 175 175 175 177 179 178 180 180 183 184 189 202 284 320 322 321 320 318 316 317 320 321 322 324 324 324 325 324
206 206 201 203 210 221 0 276 292 173 168 168 165 165 158 162 169 173 175 176 176 177 178 180 180 181 182 181 182 184 186 189 226 307 320 323 320 317 317 319 322 321 322 325 326 325 325 324 321
Height
1516 1516 1514 1512 1522 1522 1525 1512 1501 1500 1495 1492 1490 1488 1490 1491 1494 1506 1494 1495 1496 1497 1498 1500 1501 1503 1504 1504 1504 1504 1503 1503 1504 1503 1504 1504 1506 1507 1507 1508 1508 1508 1507 1507 1507 1508 1508 1510 1510
1515 1515 1513 1513 1527 1533 1524 1505 1500 1495 1492 1490 1490 1489 1491 1494 1493 1492 1493 1494 1496 1497 1497 1499 1501 1502 1504 1504 1504 1504 1503 1502 1502 1503 1504 1505 1506 1507 1507 1508 1507 1508 1507 1506 1506 1507 1508 1509 1509
1514 1514 1515 1517 1526 1529 1521 1502 1501 1492 1490 1490 1489 1489 1491 1494 1494 1493 1492 1494 1495 1496 1497 1499 1500 1501 1503 1503 1504 1504 1503 1502 1502 1502 1503 1505 1506 1507 1506 1507 1508 1507 1507 1506 1506 1506 1506 1507 1507
1513 1514 1515 1520 1520 1510 1505 1500 1499 1494 1491 1491 1491 1491 1492 1493 1493 1493 1493 1494 1496 1496 1497 1499 1500 1501 1502 1503 1503 1503 1503 1503 1502 1502 1504 1505 1506 1506 1507 1507 1507 1507 1507 1506 1505 1505 1504 1505 1505
1513 1513 1519 1520 1515 1504 1500 1498 1496 1495 1491 1490 1491 1492 1492 1493 1492 1494 1493 1494 1496 1496 1497 1498 1499 1500 1502 1501 1502 1503 1503 1502 1502 1502 1503 1505 1506 1506 1507 1507 1507 1506 1506 1506 1505 1505 1505 1504 1505
1511 1512 1525 1524 1513 1500 1498 1497 1494 1492 1490 1490 1491 1492 1492 1492 1491 1494 1494 1494 1496 1496 1497 1498 1498 1499 1501 1501 1501 1502 1502 1502 1502 1502 1503 1504 1505 1505 1506 1507 1507 1507 1505 1505 1505 1505 1505 1504 1504
1508 1513 1517 1514 1511 1504 1495 1493 1492 1490 1488 1490 1492 1493 1492 1492 1491 1493 1494 1494 1495 1496 1496 1497 1497 1498 1499 1501 1501 1502 1501 1502 1501 1502 1502 1504 1504 1504 1505 1507 1507 1506 1505 1505 1505 1505 1504 1504 1503
1506 1507 1510 1509 1509 1503 1493 1491 1490 1489 1488 1489 1489 1492 1491 1491 1491 1492 1493 1493 1494 1495 1496 1497 1496 1497 1498 1499 1500 1501 1501 1501 1501 1501 1502 1503 1504 1504 1505 1506 1506 1505 1505 1505 1505 1504 1504 1503 1502
1504 1509 1507 1501 1502 1495 1489 1491 1489 1488 1487 1487 1487 1489 1488 1490 1491 1492 1493 1493 1493 1494 1494 1495 1495 1495 1497 1497 1498 1500 1500 1501 1500 1501 1502 1503 1502 1503 1504 1506 1506 1505 1504 1504 1504 1503 1503 1502 1501
1500 1501 1495 1489 1490 1488 1490 1491 1490 1489 1486 1486 1486 1487 1487 1490 1491 1491 1491 1491 1490 1491 1492 1493 1494 1494 1495 1495 1496 1498 1499 1500 1500 1500 1501 1503 1502 1503 1504 1504 1504 1504 1503 1503 1503 1502 1501 1501 1500
1492 1487 1487 1485 1486 1487 1487 1489 1489 1487 1487 1484 1484 1487 1488 1490 1490 1490 1490 1489 1488 1489 1490 1491 1491 1492 1493 1493 1495 1497 1498 1499 1499 1499 1501 1502 1502 1502 1503 1504 1504 1503 1503 1502 1502 1501 1500 1499 1498
1492 1485 1487 1486 1486 1486 1486 1486 1486 1484 1483 1483 1483 1483 1485 1485 1487 1488 1487 1486 1485 1486 1487 1488 1489 1490 1490 1492 1493 1495 1497 1498 1498 1499 1500 1501 1501 1502 1503 1503 1503 1502 1502 1501 1501 1500 1499 1498 1497
1487 1485 1484 1485 1485 1484 1483 1481 1482 1479 1482 1482 1480 1479 1480 1481 1482 1482 1483 1483 1482 1482 1483 1484 1486 1487 1488 1489 1492 1493 1496 1497 1497 1498 1499 1499 1499 1501 1502 1503 1502 1501 1501 1499 1499 1498 1497 1496 1495
1483 1483 1482 1482 1482 1483 1482 1477 1479 1475 1478 1477 1477 1476 1476 1477 1476 1477 1478 1478 1478 1478 1479 1482 1483 1485 1487 1489 1491 1493 1495 1496 1496 1497 1499 1498 1501 1501 1502 1501 1500 1499 1499 1498 1497 1496 1494 1492 1491
1484 1483 1478 1478 1479 1479 1481 1472 1468 1473 1473 1471 1471 1471 1471 1473 1472 1472 1472 1472 1473 1473 1475 1477 1480 1483 1485 1487 1490 1491 1494 1494 1495 1495 1497 1498 1500 1500 1500 1500 1499 1498 1498 1496 1495 1493 1491 1489 1487
1485 1483 1484 1472 1473 1475 1481 1456 1463 1466 1467 1466 1466 1466 1466 1467 1467 1467 1466 1468 1469 1469 1471 1473 1476 1480 1483 1485 1490 1490 1491 1493 1492 1493 1495 1497 1499 1499 1499 1498 1497 1497 1496 1494 1492 1490 1488 1485 1482
1487 1487 1482 1476 1470 1472 1470 1454 1460 1463 1462 1461 1460 1459 1461 1461 1461 1462 1463 1465 1465 1465 1466 1469 1473 1476 1478 1482 1485 1487 1490 1492 1491 1491 1493 1496 1498 1498 1498 1497 1496 1495 1494 1492 1489 1486 1483 1480 1478
1478 1482 1479 1477 1471 1469 1465 1455 1458 1458 1456 1455 1454 1453 1454 1455 1456 1458 1460 1460 1460 1461 1463 1467 1470 1472 1475 1478 1481 1485 1488 1490 1489 1491 1493 1494 1497 1496 1497 1495 1495 1494 1492 1489 1486 1483 1480 1476 1472
1477 1478 1479 1476 1472 1472 1466 1456 1453 1453 1450 1449 1448 1447 1449 1450 1453 1455 1455 1455 1455 1457 1459 1461 1465 1466 1470 1473 1476 1483 1485 1489 1489 1491 1492 1494 1495 1495 1495 1494 1493 1491 1489 1486 1482 1479 1476 1473 1468
1477 1477 1472 1475 1472 1468 1464 1454 1450 1444 1440 1443 1442 1442 1444 1446 1449 1450 1451 1452 1452 1454 1455 1459 1461 1463 1467 1472 1476 1481 1484 1486 1488 1489 1491 1493 1495 1494 1494 1492 1491 1489 1486 1483 1479 1476 1473 1470 1466
1473 1473 1477 1480 1474 1463 1464 1448 1443 1433 1434 1435 1434 1435 1437 1438 1441 1445 1446 1448 1450 1452 1454 1457 1460 1464 1468 1472 1475 1479 1482 1485 1486 1488 1490 1492 1493 1493 1492 1490 1489 1486 1484 1481 1477 1474 1470 1467 1465
1469 1468 1471 1473 1474 1477 1459 1448 1434 1427 1425 1426 1424 1426 1430 1432 1436 1439 1441 1444 1447 1450 1453 1457 1460 1464 1468 1471 1475 1477 1480 1482 1485 1487 1489 1490 1491 1491 1490 1488 1486 1483 1481 1478 1476 1473 1469 1466 1463
1461 1464 1466 1465 1465 1468 1463 1466 1426 1425 1418 1413 1411 1416 1421 1423 1427 1432 1437 1441 1445 1448 1451 1456 1459 1463 1467 1471 1474 1477 1479 1482 1483 1486 1488 1489 1489 1489 1487 1486 1483 1480 1478 1476 1474 1471 1468 1464 1461
1460 1463 1463 1464 1465 1461 1442 1456 1418 1414 1407 1404 1401 1405 1410 1416 1423 1429 1434 1440 1444 1448 1450 1456 1458 1462 1466 1469 1473 1476 1479 1480 1483 1485 1486 1487 1488 1487 1485 1483 1480 1478 1476 1473 1471 1468 1465 1462 1459
1458 1466 1464 1463 1463 1443 1431 1444 1409 1402 1397 1394 1392 1396 1402 1409 1415 1424 1430 1437 1441 1446 1448 1454 1457 1460 1464 1468 1471 1475 1479 1481 1482 1484 1485 1486 1486 1484 1482 1480 1478 1476 1473 1471 1468 1465 1462 1459 1455
1453 1456 1454 1457 1467 1440 1430 1424 1398 1390 1387 1389 1388 1391 1396 1403 1410 1419 1427 1433 1438 1444 1447 1452 1455 1459 1464 1467 1470 1475 1478 1480 1482 1483 1484 1484 1483 1482 1480 1477 1475 1473 1471 1468 1465 1462 1458 1455 1451
1450 1449 1439 1451 1439 1439 1421 1406 1394 1386 1383 1379 1382 1388 1392 1399 1405 1415 1425 1431 1437 1442 1446 1451 1454 1459 1463 1466 1469 1474 1477 1480 1481 1482 1482 1482 1481 1480 1477 1475 1473 1471 1468 1464 1461 1457 1454 1450 1446
1430 1437 1451 1451 1459 1434 1405 1402 1386 1380 1381 1381 1383 1386 1394 1400 1406 1416 1425 1431 1437 1442 1446 1451 1455 1459 1463 1466 1469 1473 1476 1479 1479 1480 1480 1479 1478 1477 1474 1472 1470 1467 1464 1461 1457 1453 1449 1445 1441
1432 1435 1432 1432 1431 1423 1404 1388 1362 1364 1365 1377 1381 1384 1387 1395 1405 1415 1423 1431 1437 1442 1446 1450 1454 1458 1462 1466 1469 1472 1475 1477 1478 1478 1478 1477 1475 1473 1471 1469 1467 1463 1460 1456 1452 1448 1444 1440 1435
1413 1415 1422 1425 1425 1419 1420 1394 1360 1356 1361 1368 1378 1387 1391 1398 1406 1414 1422 1429 1435 1441 1445 1450 1454 1458 1462 1465 1468 1471 1473 1475 1476 1476 1475 1474 1472 1470 1468 1466 1463 1460 1456 1452 1447 1442 1439 1434 1429